Vertical_Velocity
0 -6 -3 -3 -2 -1 0 1 0 -6 -4 3 -1 -1 -4 -1 5 1 0 -1 -3 -8 9 4 1 2 4 1 3 1 -1 -0 -2 -4 -5 -2 -3 -2 -0 -2 2 0 -1 0
-7 -3 -3 -1 0 -0 0 1 -3 -7 -1 -1 -2 -5 -1 -0 -6 -7 -5 -0 -3 3 -1 -0 -2 -3 -1 2 1 2 1 2 -1 0 -1 -2 1 2 6 4 0 -1 -2 1
-4 -7 -1 -1 0 1 -0 -1 -1 -2 -2 -3 -1 -6 -2 -4 4 5 4 1 8 -7 -2 -3 -3 -4 -1 -4 -3 -0 1 3 0 2 4 1 3 4 2 -4 -2 -4 -2 2
-2 -3 0 0 -0 -3 1 -2 1 1 -1 -4 -5 -9 -2 -2 -3 1 3 -1 -1 -3 1 1 1 -4 -7 -5 1 1 0 1 2 2 2 -2 -4 -3 -2 1 2 0 -1 1
-18 0 1 1 -6 -2 -13 -1 -0 0 1 -1 -3 -4 -15 -0 -3 -3 -1 -3 -3 1 -4 -8 -6 -2 3 -3 -3 1 1 3 0 -0 -0 2 1 1 6 2 2 6 3 2
-5 1 -2 -7 -0 -2 -2 -1 -2 -1 -2 -3 -2 -5 -11 -2 -5 -1 -1 -1 -0 -2 -5 -1 13 1 -2 -0 -1 -2 -3 -2 0 0 -2 -0 0 1 -0 1 -2 1 1 2
-4 -4 -1 1 0 0 -3 -5 -5 -8 -7 -8 -0 -2 -16 -3 -2 -1 -2 -1 0 -2 1 0 -3 -5 -2 -6 -4 -3 -1 -3 -2 -0 -1 -2 0 2 1 -1 1 -0 -2 -2
-0 -17 -2 -2 -8 -10 -2 -8 -8 -3 -2 -5 -1 -4 -22 -3 -1 1 -2 2 4 -1 0 -4 4 -1 -1 -2 -2 -1 -3 -2 0 1 -2 -1 0 -1 1 2 0 -2 -1 0
-1 -6 -2 0 -1 -12 -4 -2 -9 -6 -1 -3 -4 -11 -12 -2 -3 -2 -0 2 -1 -1 -4 -5 1 -1 1 -3 -5 -2 -4 -1 -2 1 0 -3 -1 -1 -3 1 1 1 2 2
-4 -5 -2 -3 0 0 -8 -7 -8 -4 -3 -1 -4 -1 -9 -5 -4 -2 -1 -1 -0 1 -0 -2 -1 -0 0 2 4 0 -2 -3 4 4 0 -0 -2 -2 -1 1 1 2 2 -0
-2 -5 -17 -5 -2 -4 -1 0 -3 -9 -4 -6 -2 -11 -6 -3 -2 -1 -2 -2 -2 -3 -2 -3 1 5 5 4 -1 -0 -5 -3 -4 -1 1 -1 -1 -2 -1 -1 0 -0 2 1
-4 -4 -1 -12 -2 -1 -2 -3 -3 -7 -5 -1 -4 -18 -0 -1 -1 1 -3 1 -2 -3 3 4 2 1 1 2 -1 -1 -2 -5 -2 1 1 -0 1 1 1 -1 -1 1 -0 0
-4 -3 -4 -17 -13 -2 0 0 -1 -1 -3 -2 -6 -15 -1 -1 -1 -1 -2 4 2 -2 -2 -0 -0 -5 1 3 2 -1 1 2 -2 -1 -1 1 0 -1 -2 -2 -1 1 1 0
-1 -1 -6 -8 -11 -1 1 1 0 -5 -3 -3 -6 -5 -4 -2 -1 -3 -2 3 -2 11 -4 -3 -3 -2 -1 0 1 1 2 1 -1 2 -1 0 -2 -1 -0 2 -1 0 2 1
-5 -1 1 -2 -1 1 -0 -0 0 0 -3 -8 -7 -2 -4 -2 -1 -2 -1 -3 -2 -1 8 3 1 -0 4 -0 2 1 1 4 -1 -3 -1 -4 4 2 -1 -2 -1 1 -1 -0
-2 -2 0 -2 -1 0 0 -1 0 -0 1 -0 0 -3 -3 -1 -0 2 -1 -1 -0 -4 -2 5 2 2 -3 -1 0 0 0 5 3 -0 -5 1 1 3 0 -0 -2 -0 -0 -1
-0 -1 -2 -4 0 -1 -3 -2 -1 -1 -0 -1 -2 -9 0 -0 -0 0 1 3 -1 1 1 0 0 3 1 1 6 0 4 5 -1 1 2 -0 3 1 2 2 -1 -0 -1 2
0 0 -1 -3 -2 1 -15 -1 -1 0 1 -0 -1 -0 0 -0 2 3 4 -0 2 5 -3 -2 -1 -1 -0 1 0 -2 0 0 -0 2 -3 -1 -2 -0 1 2 0 -0 0 -0
-1 -1 -2 -3 -1 -8 -1 -1 -2 -4 0 0 1 -0 2 1 2 2 1 2 1 1 5 3 -4 -1 -1 1 -1 1 0 -2 -0 2 1 -6 2 -0 -1 -2 -0 2 -0 1
-1 -2 -4 -0 -0 -4 -4 -1 1 0 -3 1 1 -0 -0 -2 -2 -4 6 7 0 -2 -3 0 4 1 -1 -1 4 -4 0 4 -1 2 5 5 3 5 -2 2 1 1 0 0
-2 -2 -1 -0 -1 -4 -1 -2 1 -0 -11 1 2 -1 -1 -2 -5 -1 -2 1 15 3 -4 5 -2 -7 6 9 1 6 3 0 -2 -1 1 4 3 1 8 9 5 3 3 2
-1 -2 -1 -1 1 -2 2 -5 -5 -1 -1 -1 -2 1 1 -1 9 0 -4 -10 -3 -6 9 3 -5 -22 9 -2 6 10 12 -2 1 -2 -0 -2 3 3 1 1 3 3 3 1
-5 -6 -5 -8 -9 -2 2 1 5 3 5 3 1 4 4 6 7 2 -0 -0 -13 -2 -5 9 -8 12 -47 -14 -10 3 12 19 -24 4 5 -1 -3 -2 -0 1 2 3 0 1
-3 1 -1 -3 -4 -1 -2 2 6 2 1 1 5 3 1 -0 3 2 1 -2 4 -6 -4 3 11 5 5 0 6 -3 2 2 6 1 0 -3 5 -0 4 -3 3 11 4 -2
-5 -2 -1 -4 -4 -4 -2 -2 -0 -5 1 1 1 3 3 0 -4 0 -2 8 1 -1 3 0 -0 1 -0 10 2 -4 -14 6 -1 0 3 3 -1 -8 -2 6 6 1 13 19
-1 -5 -2 -7 -2 2 -7 -3 4 -4 -5 0 -0 -6 -2 4 -0 4 -4 1 3 1 -4 -2 -6 -3 2 -4 -2 -14 -43 -16 2 2 2 1 0 -1 -1 0 -12 -34 -75 25
Height
1517 1525 1531 1526 1527 1528 1530 1533 1534 1516 1510 1512 1507 1504 1492 1495 1499 1501 1501 1504 1506 1507 1513 1518 1522 1525 1529 1533 1536 1539 1543 1547 1549 1552 1555 1557 1559 1563 1565 1569 1572 1575 1578 1580
1522 1527 1519 1520 1524 1527 1530 1533 1531 1515 1506 1513 1506 1503 1493 1493 1491 1492 1493 1496 1499 1504 1509 1514 1518 1521 1524 1529 1533 1537 1540 1544 1547 1549 1552 1555 1558 1560 1563 1567 1569 1572 1575 1577
1526 1518 1513 1519 1523 1527 1529 1533 1528 1526 1513 1504 1505 1510 1495 1484 1482 1483 1485 1485 1491 1495 1501 1507 1512 1516 1521 1525 1529 1533 1537 1540 1544 1546 1550 1552 1555 1557 1559 1561 1564 1568 1571 1575
1519 1511 1514 1518 1522 1525 1533 1515 1517 1520 1524 1535 1509 1538 1505 1486 1481 1478 1479 1481 1483 1489 1497 1502 1506 1511 1515 1519 1526 1530 1534 1537 1541 1544 1547 1549 1551 1553 1555 1557 1560 1564 1568 1572
1518 1511 1514 1518 1517 1516 1520 1511 1514 1514 1523 1522 1520 1532 1503 1489 1485 1475 1473 1476 1478 1483 1489 1494 1498 1504 1511 1517 1521 1526 1530 1534 1538 1541 1544 1546 1548 1550 1553 1556 1557 1560 1565 1569
1510 1506 1507 1506 1506 1508 1506 1511 1516 1524 1531 1545 1522 1527 1512 1493 1479 1469 1466 1468 1472 1478 1483 1488 1495 1501 1508 1513 1518 1522 1526 1530 1534 1538 1540 1542 1545 1548 1551 1554 1556 1560 1563 1567
1512 1504 1498 1499 1506 1506 1511 1527 1551 1546 1552 1549 1527 1529 1506 1476 1470 1468 1463 1463 1466 1472 1478 1483 1488 1493 1500 1506 1512 1517 1521 1525 1530 1534 1537 1539 1542 1546 1549 1553 1556 1558 1561 1564
1526 1523 1499 1492 1498 1505 1513 1520 1547 1551 1556 1545 1525 1528 1496 1469 1464 1459 1458 1460 1463 1469 1473 1478 1482 1488 1493 1500 1507 1513 1517 1521 1525 1529 1533 1536 1539 1542 1546 1550 1554 1557 1561 1564
1527 1518 1490 1489 1488 1492 1507 1521 1509 1541 1547 1549 1532 1509 1478 1465 1462 1458 1457 1457 1460 1465 1469 1473 1478 1483 1488 1493 1500 1506 1512 1517 1521 1525 1529 1533 1536 1539 1542 1546 1550 1554 1558 1562
1506 1520 1492 1486 1486 1489 1493 1497 1519 1533 1539 1542 1535 1523 1511 1478 1471 1463 1459 1457 1459 1462 1466 1471 1475 1478 1482 1488 1495 1502 1509 1512 1516 1521 1525 1528 1532 1535 1539 1542 1546 1549 1554 1558
1498 1508 1494 1487 1490 1496 1500 1504 1513 1520 1531 1541 1544 1523 1482 1475 1468 1463 1459 1456 1458 1460 1463 1467 1471 1475 1479 1484 1489 1495 1503 1507 1511 1516 1521 1525 1528 1531 1534 1537 1541 1545 1549 1553
1495 1508 1514 1499 1481 1480 1482 1491 1498 1517 1524 1535 1535 1514 1469 1468 1463 1461 1457 1456 1455 1457 1460 1463 1468 1472 1475 1478 1483 1488 1495 1501 1506 1511 1516 1520 1524 1527 1529 1532 1535 1539 1544 1548
1494 1509 1520 1502 1489 1479 1480 1484 1490 1500 1509 1526 1527 1510 1465 1465 1461 1461 1461 1457 1455 1455 1457 1460 1464 1468 1471 1474 1477 1482 1487 1494 1500 1507 1510 1515 1519 1522 1525 1528 1531 1535 1539 1544
1490 1505 1507 1515 1496 1486 1483 1478 1484 1488 1511 1512 1509 1488 1473 1467 1465 1460 1459 1459 1458 1456 1456 1458 1461 1463 1467 1471 1473 1478 1483 1490 1495 1502 1506 1510 1514 1518 1521 1525 1527 1531 1535 1539
1494 1502 1499 1495 1490 1484 1478 1473 1477 1484 1482 1486 1483 1488 1471 1465 1462 1460 1458 1458 1457 1457 1456 1456 1458 1462 1465 1468 1471 1475 1479 1484 1489 1495 1500 1504 1510 1514 1518 1521 1523 1527 1530 1534
1495 1501 1499 1495 1484 1484 1482 1472 1471 1473 1473 1479 1477 1479 1460 1458 1458 1458 1457 1456 1456 1458 1460 1459 1460 1462 1464 1466 1469 1472 1476 1479 1485 1489 1494 1499 1505 1510 1513 1516 1519 1523 1525 1528
1498 1502 1504 1506 1492 1486 1489 1477 1473 1467 1467 1468 1480 1468 1463 1465 1464 1461 1459 1456 1457 1458 1457 1458 1460 1462 1463 1465 1468 1470 1473 1476 1480 1485 1489 1494 1499 1504 1508 1512 1515 1517 1520 1523
1496 1500 1503 1507 1496 1508 1478 1468 1466 1469 1470 1470 1467 1465 1463 1465 1464 1463 1460 1458 1459 1458 1458 1459 1459 1459 1461 1463 1465 1468 1471 1474 1477 1480 1484 1488 1493 1498 1503 1506 1509 1512 1514 1517
1490 1499 1503 1505 1506 1490 1474 1468 1469 1469 1472 1472 1469 1465 1465 1465 1464 1464 1464 1463 1461 1462 1460 1458 1458 1458 1459 1460 1462 1464 1466 1470 1473 1476 1478 1484 1487 1492 1496 1500 1504 1507 1509 1512
1490 1494 1499 1506 1502 1503 1480 1471 1470 1466 1480 1470 1468 1467 1465 1469 1473 1469 1468 1466 1464 1463 1463 1461 1458 1460 1456 1458 1459 1461 1464 1466 1469 1473 1476 1479 1483 1487 1490 1493 1498 1502 1504 1507
1503 1502 1502 1505 1501 1490 1479 1473 1470 1482 1485 1470 1469 1468 1467 1468 1470 1470 1470 1470 1467 1464 1462 1464 1459 1463 1462 1458 1458 1459 1460 1464 1468 1469 1473 1475 1478 1481 1486 1490 1493 1496 1498 1501
1504 1507 1507 1505 1500 1497 1478 1473 1479 1480 1474 1473 1470 1469 1468 1468 1466 1464 1467 1470 1470 1467 1464 1461 1459 1462 1468 1465 1463 1463 1458 1460 1463 1464 1466 1470 1473 1476 1480 1483 1487 1490 1492 1495
1504 1501 1503 1500 1497 1486 1484 1482 1480 1478 1476 1474 1472 1470 1469 1468 1466 1462 1466 1465 1468 1469 1469 1462 1461 1467 1467 1472 1455 1467 1465 1464 1464 1463 1462 1464 1468 1468 1472 1474 1477 1482 1484 1487
1496 1494 1497 1493 1486 1483 1481 1480 1479 1478 1477 1474 1472 1470 1468 1467 1466 1466 1465 1465 1464 1462 1465 1460 1458 1460 1465 1468 1468 1469 1465 1466 1463 1459 1461 1462 1462 1463 1466 1467 1466 1471 1475 1479
1499 1495 1493 1491 1484 1480 1478 1478 1478 1474 1474 1472 1470 1468 1466 1465 1463 1463 1463 1463 1463 1463 1461 1459 1455 1454 1456 1459 1460 1459 1461 1461 1456 1456 1458 1460 1462 1462 1461 1459 1461 1467 1468 1477
1492 1491 1493 1488 1481 1481 1477 1475 1474 1473 1470 1467 1465 1462 1462 1461 1459 1459 1458 1458 1459 1458 1457 1455 1454 1453 1452 1451 1451 1451 1453 1462 1457 1453 1454 1455 1456 1458 1458 1457 1458 1459 1444 1462